GIA715 YSSY-WADD

Flight info

Callsign GIA715
Flight time N/A
Altitude 38000
Route RIC H226 ENPAG T74 VINAX G326 NYOMA
Aircraft A333/H-SDE3GHIJ2J3J5M1RVWXY/LB2D1

Departure

Time 2026-04-25 00:38
Airport Sydney Kingsford Smith International Airport (YSSY)

Arrival

Time N/A
Airport Denpasar I Gusti Ngurah Rai International Airport (WADD)
Time Latitude Longitude Altitude Speed Heading
2026-04-25 00:23 -33.93860 151.16969 34 ft 0 kts 254°
2026-04-25 00:25 -33.93857 151.16979 34 ft 4 kts 258°
2026-04-25 00:25 -33.93854 151.17011 30 ft 4 kts 269°
2026-04-25 00:26 -33.93852 151.17042 31 ft 4 kts 241°
2026-04-25 00:26 -33.93837 151.17062 31 ft 4 kts 209°
2026-04-25 00:26 -33.93812 151.17070 32 ft 4 kts 171°
2026-04-25 00:26 -33.93787 151.17062 33 ft 3 kts 167°
2026-04-25 00:27 -33.93785 151.17062 31 ft 0 kts 168°
2026-04-25 00:29 -33.93786 151.17062 31 ft 0 kts 168°
2026-04-25 00:29 -33.93788 151.17063 33 ft 0 kts 168°
2026-04-25 00:31 -33.93809 151.17068 33 ft 6 kts 168°
2026-04-25 00:31 -33.93867 151.17082 32 ft 11 kts 168°
2026-04-25 00:32 -33.93921 151.17095 33 ft 11 kts 168°
2026-04-25 00:32 -33.93972 151.17119 33 ft 9 kts 138°
2026-04-25 00:32 -33.93984 151.17195 33 ft 10 kts 101°
2026-04-25 00:32 -33.94031 151.17241 33 ft 9 kts 170°
2026-04-25 00:33 -33.94096 151.17256 32 ft 10 kts 164°
2026-04-25 00:33 -33.94163 151.17277 32 ft 11 kts 166°
2026-04-25 00:33 -33.94246 151.17299 33 ft 13 kts 169°
2026-04-25 00:33 -33.94347 151.17323 34 ft 18 kts 169°
2026-04-25 00:34 -33.94486 151.17356 34 ft 23 kts 166°
2026-04-25 00:34 -33.94655 151.17406 34 ft 27 kts 168°
2026-04-25 00:34 -33.94848 151.17452 33 ft 29 kts 168°
2026-04-25 00:34 -33.95046 151.17504 33 ft 29 kts 167°
2026-04-25 00:35 -33.95242 151.17555 33 ft 29 kts 168°
2026-04-25 00:35 -33.95439 151.17605 33 ft 29 kts 168°
2026-04-25 00:35 -33.95634 151.17654 34 ft 28 kts 168°
2026-04-25 00:35 -33.95826 151.17708 34 ft 28 kts 163°
2026-04-25 00:36 -33.96016 151.17755 34 ft 28 kts 168°
2026-04-25 00:36 -33.96203 151.17803 34 ft 28 kts 167°
2026-04-25 00:36 -33.96372 151.17847 34 ft 20 kts 165°
2026-04-25 00:36 -33.96429 151.17967 33 ft 18 kts 79°
2026-04-25 00:37 -33.96366 151.18048 33 ft 19 kts 359°
2026-04-25 00:37 -33.96061 151.17978 31 ft 75 kts 347°
2026-04-25 00:37 -33.95363 151.17785 33 ft 130 kts 348°
2026-04-25 00:37 -33.94319 151.17515 64 ft 175 kts 347°
2026-04-25 00:38 -33.93066 151.17200 610 ft 187 kts 346°
2026-04-25 00:38 -33.91813 151.16885 1524 ft 184 kts 347°
2026-04-25 00:38 -33.90589 151.16400 2366 ft 186 kts 328°
2026-04-25 00:38 -33.89745 151.15212 3027 ft 192 kts 308°
2026-04-25 00:39 -33.88869 151.13922 3392 ft 208 kts 313°
2026-04-25 00:39 -33.87855 151.12573 3666 ft 232 kts 315°
2026-04-25 00:39 -33.86709 151.11111 4067 ft 246 kts 315°
2026-04-25 00:39 -33.85496 151.09583 4547 ft 259 kts 315°
2026-04-25 00:40 -33.84221 151.07992 5193 ft 267 kts 315°
2026-04-25 00:40 -33.82920 151.06370 5989 ft 271 kts 315°
2026-04-25 00:40 -33.81603 151.04732 6819 ft 273 kts 314°
2026-04-25 00:40 -33.80272 151.03078 7598 ft 278 kts 314°
2026-04-25 00:41 -33.78916 151.01396 8351 ft 282 kts 314°
2026-04-25 00:41 -33.77540 150.99690 9126 ft 287 kts 314°
2026-04-25 00:41 -33.76137 150.97952 9866 ft 292 kts 314°
2026-04-25 00:41 -33.74699 150.96171 10445 ft 305 kts 314°
2026-04-25 00:42 -33.73170 150.94279 10735 ft 325 kts 314°
2026-04-25 00:42 -33.71549 150.92274 11061 ft 342 kts 314°
2026-04-25 00:42 -33.69864 150.90192 11608 ft 351 kts 314°
2026-04-25 00:42 -33.68151 150.88077 12291 ft 356 kts 314°
2026-04-25 00:43 -33.66416 150.85935 12971 ft 360 kts 314°
2026-04-25 00:43 -33.64655 150.83762 13655 ft 365 kts 314°
2026-04-25 00:43 -33.62875 150.81568 14329 ft 369 kts 314°
2026-04-25 00:43 -33.61072 150.79368 14751 ft 370 kts 315°
2026-04-25 00:44 -33.59291 150.77122 14918 ft 374 kts 311°
2026-04-25 00:44 -33.57690 150.74655 15124 ft 376 kts 306°
2026-04-25 00:44 -33.56217 150.72055 15389 ft 379 kts 303°
2026-04-25 00:44 -33.54825 150.69356 16035 ft 382 kts 301°
2026-04-25 00:45 -33.53456 150.66615 16708 ft 384 kts 301°
2026-04-25 00:45 -33.52083 150.63898 17350 ft 388 kts 302°
2026-04-25 00:45 -33.50654 150.61140 17939 ft 392 kts 302°
2026-04-25 00:45 -33.49182 150.58372 18565 ft 395 kts 303°
2026-04-25 00:46 -33.47682 150.55599 19119 ft 399 kts 303°
2026-04-25 00:46 -33.46154 150.52801 19629 ft 403 kts 303°
2026-04-25 00:46 -33.43047 150.47150 20635 ft 410 kts 303°
2026-04-25 00:47 -33.41471 150.44287 21115 ft 413 kts 303°
2026-04-25 00:47 -33.39880 150.41396 21608 ft 417 kts 303°
2026-04-25 00:47 -33.38284 150.38487 22090 ft 420 kts 303°
2026-04-25 00:47 -33.36670 150.35553 22582 ft 424 kts 303°
2026-04-25 00:48 -33.35042 150.32596 23026 ft 427 kts 303°
2026-04-25 00:48 -33.33400 150.29617 23485 ft 431 kts 303°
2026-04-25 00:48 -33.31746 150.26618 23935 ft 434 kts 303°
2026-04-25 00:48 -33.30078 150.23594 24331 ft 437 kts 303°
2026-04-25 00:49 -33.28398 150.20551 24691 ft 440 kts 303°
2026-04-25 00:49 -33.26710 150.17478 25069 ft 443 kts 303°
2026-04-25 00:49 -33.25010 150.14401 25454 ft 444 kts 303°
2026-04-25 00:49 -33.23301 150.11317 25836 ft 447 kts 302°
2026-04-25 00:50 -33.21578 150.08213 26202 ft 449 kts 302°
2026-04-25 00:50 -33.19845 150.05092 26555 ft 452 kts 302°
2026-04-25 00:50 -33.18102 150.01953 26912 ft 455 kts 302°
2026-04-25 00:50 -33.16348 149.98798 27260 ft 458 kts 302°
2026-04-25 00:51 -33.14602 149.95666 27538 ft 458 kts 303°
2026-04-25 00:51 -33.12817 149.92517 27553 ft 459 kts 303°
2026-04-25 00:51 -33.11019 149.89360 27563 ft 460 kts 303°
2026-04-25 00:51 -33.09223 149.86197 27651 ft 460 kts 303°
2026-04-25 00:52 -33.07437 149.83033 27731 ft 460 kts 302°
2026-04-25 00:52 -33.05655 149.79860 27727 ft 461 kts 302°
2026-04-25 00:52 -33.03872 149.76676 27768 ft 462 kts 302°
2026-04-25 00:52 -33.02089 149.73488 27813 ft 462 kts 302°
2026-04-25 00:53 -33.00305 149.70298 27868 ft 462 kts 302°
2026-04-25 00:53 -32.98521 149.67111 27914 ft 463 kts 302°
2026-04-25 00:53 -32.96734 149.63922 27965 ft 463 kts 302°
2026-04-25 00:53 -32.94943 149.60728 27995 ft 464 kts 302°
2026-04-25 00:54 -32.93151 149.57538 28074 ft 463 kts 302°
2026-04-25 00:54 -32.89572 149.51173 28194 ft 463 kts 302°
2026-04-25 00:55 -32.85982 149.44799 28269 ft 464 kts 302°
2026-04-25 00:55 -32.82383 149.38419 28363 ft 465 kts 302°
2026-04-25 00:56 -32.78775 149.32038 28450 ft 465 kts 302°
2026-04-25 00:56 -32.75161 149.25655 28539 ft 466 kts 302°
2026-04-25 00:57 -32.71545 149.19245 28856 ft 469 kts 301°
2026-04-25 00:57 -32.69745 149.16006 29245 ft 471 kts 301°
2026-04-25 00:57 -32.67957 149.12796 29596 ft 473 kts 301°
2026-04-25 00:57 -32.66126 149.09531 29930 ft 476 kts 301°
2026-04-25 00:58 -32.64281 149.06265 30261 ft 478 kts 302°
2026-04-25 00:58 -32.62417 149.02983 30576 ft 481 kts 301°
2026-04-25 00:58 -32.60540 148.99690 30878 ft 482 kts 301°
2026-04-25 00:58 -32.58655 148.96391 31186 ft 484 kts 301°
2026-04-25 00:59 -32.56763 148.93082 31489 ft 486 kts 301°
2026-04-25 00:59 -32.54866 148.89767 31778 ft 487 kts 301°
2026-04-25 00:59 -32.52958 148.86435 32083 ft 489 kts 301°
2026-04-25 00:59 -32.51047 148.83101 32362 ft 490 kts 301°
2026-04-25 01:00 -32.49132 148.79762 32753 ft 489 kts 301°
2026-04-25 01:00 -32.47219 148.76431 33184 ft 487 kts 301°
2026-04-25 01:00 -32.45318 148.73124 33608 ft 485 kts 301°
2026-04-25 01:00 -32.43421 148.69826 34012 ft 483 kts 301°
2026-04-25 01:01 -32.41533 148.66545 34398 ft 482 kts 301°
2026-04-25 01:01 -32.39646 148.63269 34709 ft 481 kts 301°
2026-04-25 01:01 -32.37763 148.60002 35009 ft 480 kts 301°
2026-04-25 01:01 -32.35881 148.56740 35292 ft 480 kts 301°
2026-04-25 01:02 -32.34025 148.53525 35587 ft 479 kts 301°
2026-04-25 01:02 -32.32147 148.50275 35878 ft 478 kts 301°
2026-04-25 01:02 -32.30272 148.47033 36140 ft 477 kts 301°
2026-04-25 01:02 -32.28397 148.43795 36444 ft 476 kts 301°
2026-04-25 01:03 -32.26529 148.40571 36705 ft 476 kts 301°
2026-04-25 01:03 -32.24660 148.37348 36954 ft 475 kts 301°
2026-04-25 01:03 -32.22793 148.34131 37192 ft 475 kts 300°
2026-04-25 01:03 -32.20924 148.30913 37447 ft 474 kts 300°
2026-04-25 01:04 -32.19059 148.27704 37682 ft 474 kts 300°
2026-04-25 01:04 -32.17194 148.24499 37924 ft 473 kts 300°
2026-04-25 01:04 -32.15331 148.21301 38168 ft 473 kts 300°
2026-04-25 01:04 -32.13470 148.18109 38374 ft 472 kts 300°
2026-04-25 01:05 -32.11606 148.14912 38434 ft 473 kts 300°
2026-04-25 01:05 -32.07874 148.08521 38434 ft 472 kts 300°
2026-04-25 01:06 -32.04144 148.02146 38415 ft 472 kts 300°
2026-04-25 01:06 -32.01039 147.96846 38415 ft 472 kts 300°
2026-04-25 01:07 -31.96695 147.89445 38424 ft 472 kts 300°
2026-04-25 01:07 -31.93589 147.84162 38423 ft 471 kts 300°
2026-04-25 01:08 -31.89861 147.77831 38427 ft 470 kts 300°
2026-04-25 01:08 -31.86136 147.71514 38410 ft 470 kts 300°
2026-04-25 01:09 -31.82399 147.65188 38409 ft 470 kts 300°
2026-04-25 01:09 -31.78668 147.58883 38423 ft 469 kts 300°
2026-04-25 01:10 -31.74942 147.52596 38420 ft 469 kts 300°
2026-04-25 01:10 -31.71215 147.46318 38419 ft 469 kts 300°
2026-04-25 01:11 -31.67483 147.40042 38418 ft 469 kts 300°
2026-04-25 01:11 -31.63750 147.33773 38420 ft 468 kts 300°
2026-04-25 01:12 -31.60021 147.27524 38419 ft 467 kts 300°
2026-04-25 01:12 -31.56264 147.21304 38415 ft 469 kts 304°
2026-04-25 01:13 -31.51712 147.15761 38420 ft 474 kts 312°
2026-04-25 01:13 -31.46831 147.10540 38404 ft 475 kts 314°
2026-04-25 01:14 -31.41899 147.05398 38418 ft 474 kts 314°
2026-04-25 01:14 -31.37011 147.00295 38417 ft 474 kts 313°
2026-04-25 01:15 -31.32098 146.95146 38419 ft 474 kts 313°
2026-04-25 01:15 -31.27191 146.89999 38417 ft 474 kts 313°
2026-04-25 01:16 -31.22284 146.84859 38416 ft 474 kts 313°
2026-04-25 01:16 -31.17373 146.79726 38412 ft 473 kts 313°
2026-04-25 01:17 -31.12473 146.74610 38413 ft 473 kts 313°
2026-04-25 01:17 -31.07566 146.69493 38405 ft 473 kts 313°
2026-04-25 01:18 -31.02661 146.64386 38403 ft 473 kts 313°
2026-04-25 01:18 -30.97756 146.59287 38404 ft 473 kts 313°
2026-04-25 01:19 -30.92842 146.54185 38402 ft 473 kts 313°
2026-04-25 01:19 -30.87928 146.49092 38401 ft 473 kts 313°
2026-04-25 01:20 -30.83011 146.44002 38399 ft 473 kts 313°
2026-04-25 01:20 -30.78125 146.38953 38398 ft 473 kts 313°
2026-04-25 01:21 -30.73208 146.33877 38401 ft 473 kts 313°
2026-04-25 01:21 -30.68287 146.28806 38395 ft 472 kts 313°
2026-04-25 01:22 -30.63369 146.23744 38401 ft 472 kts 313°
2026-04-25 01:22 -30.58448 146.18686 38377 ft 472 kts 313°
2026-04-25 01:23 -30.53526 146.13634 38391 ft 472 kts 313°
2026-04-25 01:23 -30.48602 146.08588 38375 ft 472 kts 313°
2026-04-25 01:24 -30.43680 146.03551 38383 ft 472 kts 313°
2026-04-25 01:24 -30.38753 145.98516 38386 ft 471 kts 313°
2026-04-25 01:25 -30.33843 145.93505 38379 ft 471 kts 313°
2026-04-25 01:25 -30.28958 145.88525 38379 ft 471 kts 313°
2026-04-25 01:26 -30.24038 145.83518 38384 ft 471 kts 313°
2026-04-25 01:26 -30.19110 145.78510 38382 ft 471 kts 313°
2026-04-25 01:27 -30.14194 145.73522 38378 ft 469 kts 313°
2026-04-25 01:27 -30.09286 145.68548 38379 ft 469 kts 313°
2026-04-25 01:28 -30.01928 145.61102 38371 ft 469 kts 313°
2026-04-25 01:28 -29.97018 145.56141 38368 ft 469 kts 313°
2026-04-25 01:29 -29.92104 145.51186 38361 ft 469 kts 312°
2026-04-25 01:29 -29.87194 145.46241 38365 ft 468 kts 312°
2026-04-25 01:30 -29.82294 145.41311 38365 ft 468 kts 312°
2026-04-25 01:30 -29.77391 145.36386 38365 ft 468 kts 312°
2026-04-25 01:31 -29.72482 145.31460 38362 ft 468 kts 312°
2026-04-25 01:31 -29.67574 145.26543 38362 ft 468 kts 312°
2026-04-25 01:32 -29.62698 145.21665 38360 ft 468 kts 312°
2026-04-25 01:32 -29.57758 145.16729 38360 ft 467 kts 312°
2026-04-25 01:33 -29.52877 145.11858 38351 ft 467 kts 312°
2026-04-25 01:33 -29.47966 145.06964 38352 ft 467 kts 312°
2026-04-25 01:34 -29.43046 145.02068 38352 ft 467 kts 312°
2026-04-25 01:34 -29.38128 144.97183 38349 ft 467 kts 311°
2026-04-25 01:35 -29.33210 144.92302 38344 ft 467 kts 311°
2026-04-25 01:35 -29.28295 144.87426 38349 ft 468 kts 311°
2026-04-25 01:36 -29.23369 144.82549 38347 ft 468 kts 311°
2026-04-25 01:36 -29.18441 144.77677 38345 ft 468 kts 311°
2026-04-25 01:37 -29.13503 144.72805 38341 ft 469 kts 310°
2026-04-25 01:37 -29.08566 144.67936 38344 ft 469 kts 310°
2026-04-25 01:38 -29.03658 144.63102 38348 ft 469 kts 310°
2026-04-25 01:38 -28.98717 144.58242 38338 ft 469 kts 310°
2026-04-25 01:39 -28.93774 144.53373 38341 ft 470 kts 310°
2026-04-25 01:39 -28.88824 144.48509 38343 ft 466 kts 309°
2026-04-25 01:40 -28.83938 144.43721 38342 ft 462 kts 309°
2026-04-25 01:40 -28.79071 144.38942 38341 ft 462 kts 309°
2026-04-25 01:41 -28.74204 144.34167 38337 ft 462 kts 309°
2026-04-25 01:41 -28.69327 144.29393 38333 ft 462 kts 309°
2026-04-25 01:42 -28.64449 144.24627 38322 ft 462 kts 308°
2026-04-25 01:42 -28.59574 144.19874 38330 ft 461 kts 307°
2026-04-25 01:43 -28.54743 144.15169 38330 ft 459 kts 307°
2026-04-25 01:43 -28.49883 144.10438 38331 ft 459 kts 307°
2026-04-25 01:44 -28.45029 144.05718 38328 ft 459 kts 307°
2026-04-25 01:44 -28.40171 144.01000 38328 ft 460 kts 307°
2026-04-25 01:45 -28.35305 143.96281 38325 ft 460 kts 307°
2026-04-25 01:45 -28.30438 143.91568 38310 ft 459 kts 307°
2026-04-25 01:46 -28.25574 143.86863 38326 ft 459 kts 307°
2026-04-25 01:46 -28.20712 143.82166 38320 ft 459 kts 307°
2026-04-25 01:47 -28.15843 143.77468 38322 ft 459 kts 308°
2026-04-25 01:47 -28.10976 143.72778 38322 ft 459 kts 308°
2026-04-25 01:48 -28.06142 143.68125 38325 ft 459 kts 308°
2026-04-25 01:48 -28.01277 143.63449 38322 ft 459 kts 308°
2026-04-25 01:49 -27.96409 143.58774 38322 ft 459 kts 308°
2026-04-25 01:49 -27.91543 143.54107 38322 ft 459 kts 308°
2026-04-25 01:50 -27.86669 143.49440 38299 ft 459 kts 307°
2026-04-25 01:50 -27.81802 143.44787 38319 ft 458 kts 307°
2026-04-25 01:51 -27.76935 143.40137 38319 ft 458 kts 307°
2026-04-25 01:51 -27.72065 143.35487 38320 ft 458 kts 307°
2026-04-25 01:52 -27.67196 143.30846 38314 ft 458 kts 307°
2026-04-25 01:52 -27.62325 143.26209 38307 ft 458 kts 307°
2026-04-25 01:53 -27.57454 143.21576 38302 ft 458 kts 307°
2026-04-25 01:53 -27.52621 143.16990 38305 ft 457 kts 307°
2026-04-25 01:54 -27.47758 143.12377 38308 ft 457 kts 307°
2026-04-25 01:54 -27.42887 143.07760 38308 ft 457 kts 307°
2026-04-25 01:55 -27.38841 143.03931 38309 ft 457 kts 307°
2026-04-25 01:55 -27.33972 142.99328 38285 ft 457 kts 307°
2026-04-25 01:56 -27.29095 142.94722 38286 ft 458 kts 307°
2026-04-25 01:56 -27.24211 142.90116 38303 ft 458 kts 307°
2026-04-25 01:57 -27.16908 142.83240 38297 ft 458 kts 307°
2026-04-25 01:58 -27.12020 142.78643 38297 ft 458 kts 308°
2026-04-25 01:58 -27.07133 142.74053 38289 ft 458 kts 308°
2026-04-25 01:59 -27.02253 142.69477 38296 ft 456 kts 308°
2026-04-25 01:59 -26.97385 142.64916 38291 ft 456 kts 308°
2026-04-25 02:00 -26.92514 142.60356 38292 ft 456 kts 308°
2026-04-25 02:00 -26.87644 142.55801 38294 ft 456 kts 308°
2026-04-25 02:01 -26.82768 142.51248 38286 ft 456 kts 308°
2026-04-25 02:01 -26.77904 142.46714 38290 ft 454 kts 308°
2026-04-25 02:02 -26.73054 142.42199 38286 ft 453 kts 308°
2026-04-25 02:02 -26.68206 142.37686 38281 ft 453 kts 308°
2026-04-25 02:03 -26.63392 142.33210 38284 ft 453 kts 308°
2026-04-25 02:03 -26.58543 142.28708 38285 ft 453 kts 308°
2026-04-25 02:04 -26.53703 142.24220 38284 ft 451 kts 309°
2026-04-25 02:04 -26.48875 142.19750 38267 ft 451 kts 309°
2026-04-25 02:05 -26.44051 142.15284 38290 ft 451 kts 309°
2026-04-25 02:05 -26.39222 142.10821 38272 ft 451 kts 309°
2026-04-25 02:06 -26.34388 142.06357 38269 ft 451 kts 309°
2026-04-25 02:06 -26.29554 142.01900 38278 ft 450 kts 309°
2026-04-25 02:07 -26.24727 141.97455 38271 ft 450 kts 309°
2026-04-25 02:07 -26.19899 141.93013 38274 ft 450 kts 309°
2026-04-25 02:08 -26.15072 141.88575 38276 ft 450 kts 309°
2026-04-25 02:08 -26.10246 141.84144 38276 ft 450 kts 309°
2026-04-25 02:09 -26.05442 141.79739 38265 ft 450 kts 309°
2026-04-25 02:09 -26.00623 141.75326 38273 ft 448 kts 309°
2026-04-25 02:10 -25.95810 141.70924 38277 ft 448 kts 309°
2026-04-25 02:10 -25.90997 141.66522 38276 ft 448 kts 309°
2026-04-25 02:11 -25.86177 141.62120 38272 ft 449 kts 309°
2026-04-25 02:11 -25.81351 141.57718 38272 ft 449 kts 309°
2026-04-25 02:12 -25.76524 141.53322 38267 ft 449 kts 309°
2026-04-25 02:12 -25.71696 141.48928 38270 ft 449 kts 309°
2026-04-25 02:13 -25.66865 141.44537 38267 ft 449 kts 309°
2026-04-25 02:13 -25.62062 141.40175 38262 ft 449 kts 309°
2026-04-25 02:14 -25.57230 141.35791 38256 ft 449 kts 309°
2026-04-25 02:14 -25.52393 141.31409 38255 ft 449 kts 309°
2026-04-25 02:15 -25.47567 141.27042 38274 ft 448 kts 309°
2026-04-25 02:15 -25.42742 141.22679 38248 ft 448 kts 309°
2026-04-25 02:16 -25.37913 141.18316 38253 ft 448 kts 309°
2026-04-25 02:16 -25.33083 141.13960 38267 ft 448 kts 309°
2026-04-25 02:17 -25.28253 141.09607 38255 ft 448 kts 309°
2026-04-25 02:17 -25.23426 141.05262 38252 ft 447 kts 309°
2026-04-25 02:18 -25.18597 141.00920 38251 ft 447 kts 309°
2026-04-25 02:18 -25.13771 140.96585 38249 ft 447 kts 309°
2026-04-25 02:19 -25.08939 140.92250 38248 ft 447 kts 309°
2026-04-25 02:19 -25.04108 140.87919 38246 ft 447 kts 309°
2026-04-25 02:20 -24.99311 140.83625 38246 ft 446 kts 309°
2026-04-25 02:20 -24.94494 140.79318 38249 ft 446 kts 309°
2026-04-25 02:21 -24.89675 140.75011 38241 ft 446 kts 310°
2026-04-25 02:21 -24.84853 140.70706 38241 ft 446 kts 310°
2026-04-25 02:22 -24.80022 140.66398 38242 ft 446 kts 310°
2026-04-25 02:22 -24.75192 140.62096 38242 ft 446 kts 310°
2026-04-25 02:23 -24.70401 140.57833 38243 ft 445 kts 310°
2026-04-25 02:23 -24.65583 140.53551 38243 ft 445 kts 310°
2026-04-25 02:24 -24.60760 140.49267 38243 ft 445 kts 310°
2026-04-25 02:24 -24.55932 140.44983 38241 ft 445 kts 310°
2026-04-25 02:25 -24.51109 140.40709 38236 ft 445 kts 310°
2026-04-25 02:25 -24.46302 140.36457 38240 ft 443 kts 310°
2026-04-25 02:26 -24.41504 140.32214 38243 ft 442 kts 310°
2026-04-25 02:26 -24.36741 140.28004 38235 ft 443 kts 310°
2026-04-25 02:27 -24.31946 140.23771 38236 ft 443 kts 310°
2026-04-25 02:27 -24.27148 140.19539 38235 ft 443 kts 310°
2026-04-25 02:28 -24.22355 140.15319 38232 ft 441 kts 310°
2026-04-25 02:28 -24.17568 140.11108 38233 ft 441 kts 310°
2026-04-25 02:29 -24.12790 140.06906 38230 ft 441 kts 310°
2026-04-25 02:29 -24.08006 140.02704 38230 ft 441 kts 310°
2026-04-25 02:30 -24.03219 139.98504 38231 ft 441 kts 310°
2026-04-25 02:30 -23.98467 139.94338 38226 ft 440 kts 310°
2026-04-25 02:31 -23.93698 139.90164 38229 ft 439 kts 310°
2026-04-25 02:31 -23.88934 139.85995 38230 ft 439 kts 310°
2026-04-25 02:32 -23.84152 139.81813 38224 ft 441 kts 310°
2026-04-25 02:32 -23.79363 139.77631 38216 ft 441 kts 310°
2026-04-25 02:33 -23.74567 139.73449 38210 ft 441 kts 311°
2026-04-25 02:33 -23.69773 139.69271 38220 ft 441 kts 311°
2026-04-25 02:34 -23.64979 139.65099 38220 ft 441 kts 311°
2026-04-25 02:34 -23.60181 139.60926 38221 ft 441 kts 311°
2026-04-25 02:35 -23.55380 139.56754 38213 ft 441 kts 311°
2026-04-25 02:35 -23.50573 139.52580 38213 ft 442 kts 311°
2026-04-25 02:36 -23.45796 139.48437 38227 ft 441 kts 311°
2026-04-25 02:36 -23.40991 139.44276 38206 ft 441 kts 311°
2026-04-25 02:37 -23.36197 139.40127 38211 ft 440 kts 311°
2026-04-25 02:37 -23.31396 139.35975 38211 ft 441 kts 311°
2026-04-25 02:38 -23.26594 139.31826 38208 ft 441 kts 311°
2026-04-25 02:38 -23.21791 139.27680 38212 ft 441 kts 311°
2026-04-25 02:39 -23.16983 139.23534 38201 ft 441 kts 311°
2026-04-25 02:39 -23.12180 139.19397 38203 ft 441 kts 311°
2026-04-25 02:40 -23.07374 139.15261 38205 ft 441 kts 311°
2026-04-25 02:40 -23.02568 139.11127 38200 ft 441 kts 311°
2026-04-25 02:41 -22.97759 139.06996 38189 ft 441 kts 312°
2026-04-25 02:41 -22.92988 139.02902 38195 ft 440 kts 312°
2026-04-25 02:42 -22.88181 138.98781 38190 ft 440 kts 312°
2026-04-25 02:42 -22.83374 138.94661 38194 ft 441 kts 312°
2026-04-25 02:43 -22.78560 138.90540 38193 ft 441 kts 312°
2026-04-25 02:43 -22.73739 138.86419 38178 ft 441 kts 313°
2026-04-25 02:44 -22.69732 138.82995 38189 ft 441 kts 312°
2026-04-25 02:44 -22.64920 138.78888 38190 ft 441 kts 313°
2026-04-25 02:45 -22.60102 138.74779 38188 ft 441 kts 313°
2026-04-25 02:45 -22.55287 138.70677 38186 ft 441 kts 313°
2026-04-25 02:46 -22.50463 138.66570 38179 ft 441 kts 313°
2026-04-25 02:46 -22.45643 138.62469 38179 ft 440 kts 313°
2026-04-25 02:47 -22.40830 138.58381 38186 ft 440 kts 313°
2026-04-25 02:47 -22.36021 138.54298 38180 ft 439 kts 313°
2026-04-25 02:48 -22.31212 138.50219 38178 ft 440 kts 313°
2026-04-25 02:48 -22.26400 138.46140 38180 ft 440 kts 313°
2026-04-25 02:49 -22.21588 138.42066 38169 ft 440 kts 314°
2026-04-25 02:49 -22.16766 138.37986 38172 ft 441 kts 314°
2026-04-25 02:50 -22.11966 138.33930 38172 ft 441 kts 314°
2026-04-25 02:50 -22.07134 138.29850 38175 ft 441 kts 314°
2026-04-25 02:51 -22.02306 138.25777 38170 ft 441 kts 314°
2026-04-25 02:51 -21.97477 138.21706 38174 ft 441 kts 314°
2026-04-25 02:52 -21.92645 138.17636 38169 ft 441 kts 314°
2026-04-25 02:52 -21.87813 138.13571 38166 ft 441 kts 314°
2026-04-25 02:53 -21.82985 138.09513 38162 ft 440 kts 314°
2026-04-25 02:53 -21.78157 138.05458 38163 ft 440 kts 314°
2026-04-25 02:54 -21.73321 138.01399 38162 ft 440 kts 314°
2026-04-25 02:54 -21.68529 137.97382 38160 ft 440 kts 314°
2026-04-25 02:55 -21.63702 137.93338 38159 ft 439 kts 315°
2026-04-25 02:55 -21.59219 137.88988 38157 ft 428 kts 303°
2026-04-25 02:56 -21.55972 137.83743 38142 ft 419 kts 294°
2026-04-25 02:56 -21.53144 137.78265 38154 ft 419 kts 292°
2026-04-25 02:57 -21.50387 137.72753 38158 ft 419 kts 292°
2026-04-25 02:57 -21.47633 137.67292 38156 ft 419 kts 292°
2026-04-25 02:58 -21.44820 137.61768 38157 ft 419 kts 293°
2026-04-25 02:58 -21.42032 137.56318 38161 ft 419 kts 293°
2026-04-25 02:59 -21.39226 137.50838 38158 ft 419 kts 293°
2026-04-25 02:59 -21.36420 137.45362 38153 ft 419 kts 293°
2026-04-25 03:00 -21.33613 137.39888 38153 ft 419 kts 293°
2026-04-25 03:00 -21.30805 137.34416 38154 ft 418 kts 293°
2026-04-25 03:01 -21.27997 137.28952 38156 ft 418 kts 293°
2026-04-25 03:01 -21.25189 137.23492 38152 ft 418 kts 293°
2026-04-25 03:02 -21.22376 137.18028 38152 ft 418 kts 293°
2026-04-25 03:02 -21.19560 137.12564 38152 ft 418 kts 293°
2026-04-25 03:03 -21.16743 137.07105 38144 ft 418 kts 293°
2026-04-25 03:03 -21.13926 137.01649 38149 ft 419 kts 293°
2026-04-25 03:04 -21.11104 136.96188 38142 ft 418 kts 294°
2026-04-25 03:04 -21.08304 136.90778 38143 ft 418 kts 294°
2026-04-25 03:05 -21.04074 136.82613 38143 ft 418 kts 294°
2026-04-25 03:05 -21.01260 136.77190 38140 ft 415 kts 294°
2026-04-25 03:06 -20.98459 136.71797 38140 ft 414 kts 294°
2026-04-25 03:06 -20.95657 136.66403 38140 ft 415 kts 294°
2026-04-25 03:07 -20.92854 136.61016 38141 ft 415 kts 294°
2026-04-25 03:07 -20.90049 136.55628 38136 ft 414 kts 294°
2026-04-25 03:08 -20.87242 136.50242 38137 ft 415 kts 294°
2026-04-25 03:08 -20.84432 136.44856 38137 ft 415 kts 294°
2026-04-25 03:09 -20.81621 136.39475 38135 ft 415 kts 294°
2026-04-25 03:09 -20.78809 136.34096 38134 ft 415 kts 294°
2026-04-25 03:10 -20.75994 136.28716 38133 ft 415 kts 294°
2026-04-25 03:10 -20.73174 136.23334 38132 ft 415 kts 294°
2026-04-25 03:11 -20.70352 136.17961 38132 ft 415 kts 294°
2026-04-25 03:11 -20.67528 136.12593 38129 ft 415 kts 294°
2026-04-25 03:12 -20.64701 136.07223 38129 ft 415 kts 294°
2026-04-25 03:12 -20.61868 136.01848 38130 ft 415 kts 294°
2026-04-25 03:13 -20.59038 135.96483 38118 ft 415 kts 294°
2026-04-25 03:13 -20.56222 135.91149 38124 ft 415 kts 294°
2026-04-25 03:14 -20.53388 135.85786 38125 ft 415 kts 294°
2026-04-25 03:14 -20.50551 135.80424 38124 ft 415 kts 294°
2026-04-25 03:15 -20.47714 135.75064 38120 ft 415 kts 294°
2026-04-25 03:15 -20.44877 135.69712 38123 ft 414 kts 294°
2026-04-25 03:16 -20.42041 135.64367 38125 ft 414 kts 294°
2026-04-25 03:16 -20.39202 135.59020 38126 ft 414 kts 294°
2026-04-25 03:17 -20.36360 135.53671 38121 ft 414 kts 295°
2026-04-25 03:17 -20.33539 135.48370 38119 ft 414 kts 295°
2026-04-25 03:18 -20.30700 135.43039 38119 ft 413 kts 295°
2026-04-25 03:18 -20.27862 135.37713 38116 ft 413 kts 295°
2026-04-25 03:19 -20.25019 135.32385 38116 ft 413 kts 295°
2026-04-25 03:19 -20.22179 135.27065 38116 ft 413 kts 295°
2026-04-25 03:20 -20.19336 135.21747 38116 ft 413 kts 295°
2026-04-25 03:20 -20.16492 135.16430 38116 ft 413 kts 295°
2026-04-25 03:21 -20.13646 135.11114 38116 ft 413 kts 295°
2026-04-25 03:21 -20.10799 135.05802 38113 ft 413 kts 295°
2026-04-25 03:22 -20.07968 135.00525 38112 ft 413 kts 295°
2026-04-25 03:22 -20.05118 134.95218 38116 ft 413 kts 295°
2026-04-25 03:23 -20.02264 134.89908 38111 ft 413 kts 295°
2026-04-25 03:23 -19.99411 134.84604 38108 ft 413 kts 295°
2026-04-25 03:24 -19.96557 134.79304 38108 ft 413 kts 296°
2026-04-25 03:24 -19.93701 134.74004 38110 ft 413 kts 296°
2026-04-25 03:25 -19.90843 134.68705 38113 ft 413 kts 296°
2026-04-25 03:25 -19.87985 134.63412 38110 ft 413 kts 296°
2026-04-25 03:26 -19.85126 134.58121 38113 ft 413 kts 296°
2026-04-25 03:26 -19.82265 134.52831 38112 ft 413 kts 296°
2026-04-25 03:27 -19.79417 134.47570 38109 ft 413 kts 296°
2026-04-25 03:27 -19.76548 134.42277 38105 ft 413 kts 296°
2026-04-25 03:28 -19.73679 134.36987 38108 ft 413 kts 296°
2026-04-25 03:28 -19.70809 134.31699 38108 ft 413 kts 296°
2026-04-25 03:29 -19.67936 134.26411 38103 ft 413 kts 296°
2026-04-25 03:29 -19.65060 134.21123 38106 ft 414 kts 296°
2026-04-25 03:30 -19.62233 134.15805 38105 ft 413 kts 295°
2026-04-25 03:30 -19.59995 134.11335 38104 ft 413 kts 294°
2026-04-25 03:31 -19.57335 134.05945 38101 ft 413 kts 294°
2026-04-25 03:31 -19.54661 134.00556 38102 ft 413 kts 294°
2026-04-25 03:32 -19.51974 133.95173 38097 ft 413 kts 294°
2026-04-25 03:32 -19.49277 133.89786 38116 ft 413 kts 294°
2026-04-25 03:33 -19.46598 133.84439 38099 ft 413 kts 294°
2026-04-25 03:33 -19.43899 133.79058 38094 ft 413 kts 294°
2026-04-25 03:34 -19.41200 133.73682 38092 ft 413 kts 295°
2026-04-25 03:34 -19.38501 133.68309 38087 ft 413 kts 295°
2026-04-25 03:35 -19.35796 133.62929 38098 ft 414 kts 295°
2026-04-25 03:35 -19.33086 133.57545 38088 ft 414 kts 295°
2026-04-25 03:36 -19.30375 133.52162 38094 ft 414 kts 295°
2026-04-25 03:36 -19.27676 133.46810 38076 ft 414 kts 295°
2026-04-25 03:37 -19.24960 133.41428 38091 ft 414 kts 295°
2026-04-25 03:37 -19.22240 133.36044 38089 ft 415 kts 295°
2026-04-25 03:38 -19.19516 133.30656 38080 ft 415 kts 295°
2026-04-25 03:38 -19.16790 133.25270 38084 ft 415 kts 295°
2026-04-25 03:39 -19.14063 133.19887 38085 ft 415 kts 295°
2026-04-25 03:39 -19.11334 133.14504 38081 ft 415 kts 295°
2026-04-25 03:40 -19.08604 133.09124 38083 ft 415 kts 295°
2026-04-25 03:40 -19.05872 133.03743 38083 ft 415 kts 295°
2026-04-25 03:41 -19.03137 132.98364 38080 ft 416 kts 295°
2026-04-25 03:41 -19.00398 132.92980 38079 ft 416 kts 295°
2026-04-25 03:42 -18.97677 132.87637 38071 ft 416 kts 295°
2026-04-25 03:42 -18.94932 132.82252 38079 ft 416 kts 295°
2026-04-25 03:43 -18.92187 132.76872 38076 ft 416 kts 295°
2026-04-25 03:43 -18.89442 132.71495 38074 ft 416 kts 295°
2026-04-25 03:44 -18.86692 132.66115 38078 ft 416 kts 295°
2026-04-25 03:44 -18.83940 132.60736 38081 ft 416 kts 295°
2026-04-25 03:45 -18.81189 132.55363 38073 ft 416 kts 295°
2026-04-25 03:45 -18.78429 132.49983 38072 ft 417 kts 295°
2026-04-25 03:46 -18.75661 132.44605 38077 ft 417 kts 296°
2026-04-25 03:46 -18.72911 132.39270 38072 ft 417 kts 296°
2026-04-25 03:47 -18.70144 132.33905 38078 ft 416 kts 296°
2026-04-25 03:47 -18.67372 132.28535 38074 ft 416 kts 296°
2026-04-25 03:48 -18.64600 132.23169 38074 ft 416 kts 296°
2026-04-25 03:48 -18.61824 132.17801 38076 ft 416 kts 296°
2026-04-25 03:49 -18.59052 132.12443 38068 ft 416 kts 296°
2026-04-25 03:49 -18.56277 132.07087 38071 ft 417 kts 296°
2026-04-25 03:50 -18.53498 132.01725 38069 ft 417 kts 296°
2026-04-25 03:50 -18.50715 131.96362 38064 ft 417 kts 296°
2026-04-25 03:51 -18.47935 131.91009 38066 ft 416 kts 296°
2026-04-25 03:51 -18.45152 131.85655 38066 ft 416 kts 296°
2026-04-25 03:52 -18.42389 131.80343 38063 ft 416 kts 296°
2026-04-25 03:52 -18.39604 131.74993 38065 ft 417 kts 296°
2026-04-25 03:53 -18.36814 131.69639 38065 ft 417 kts 296°
2026-04-25 03:53 -18.34024 131.64291 38063 ft 417 kts 296°
2026-04-25 03:54 -18.31233 131.58944 38061 ft 417 kts 296°
2026-04-25 03:54 -18.28439 131.53597 38064 ft 417 kts 296°
2026-04-25 03:55 -18.25644 131.48252 38059 ft 417 kts 296°
2026-04-25 03:55 -18.22849 131.42910 38059 ft 417 kts 297°
2026-04-25 03:56 -18.20051 131.37567 38054 ft 417 kts 297°
2026-04-25 03:56 -18.17249 131.32224 38055 ft 417 kts 297°
2026-04-25 03:57 -18.14443 131.26876 38059 ft 417 kts 297°
2026-04-25 03:57 -18.11639 131.21535 38059 ft 417 kts 297°
2026-04-25 03:58 -18.08831 131.16193 38053 ft 417 kts 297°
2026-04-25 03:58 -18.06023 131.10855 38052 ft 418 kts 297°
2026-04-25 03:59 -18.03226 131.05541 38053 ft 418 kts 297°
2026-04-25 03:59 -18.00407 131.00192 38053 ft 418 kts 297°
2026-04-25 04:00 -17.97589 130.94848 38057 ft 418 kts 297°
2026-04-25 04:00 -17.94769 130.89504 38054 ft 418 kts 297°
2026-04-25 04:01 -17.91943 130.84154 38053 ft 418 kts 297°
2026-04-25 04:01 -17.89119 130.78812 38046 ft 419 kts 297°
2026-04-25 04:02 -17.86289 130.73464 38052 ft 419 kts 297°
2026-04-25 04:02 -17.83453 130.68109 38054 ft 419 kts 297°
2026-04-25 04:03 -17.80618 130.62759 38054 ft 419 kts 297°
2026-04-25 04:03 -17.77782 130.57413 38054 ft 419 kts 297°
2026-04-25 04:04 -17.74944 130.52067 38054 ft 419 kts 297°
2026-04-25 04:04 -17.72104 130.46721 38056 ft 419 kts 297°
2026-04-25 04:05 -17.69280 130.41411 38053 ft 420 kts 297°
2026-04-25 04:05 -17.66430 130.36055 38053 ft 420 kts 297°
2026-04-25 04:06 -17.63579 130.30702 38052 ft 420 kts 297°
2026-04-25 04:06 -17.60727 130.25353 38053 ft 420 kts 297°
2026-04-25 04:07 -17.57874 130.20005 38052 ft 420 kts 298°
2026-04-25 04:07 -17.55019 130.14658 38055 ft 420 kts 298°
2026-04-25 04:08 -17.52160 130.09307 38048 ft 421 kts 298°
2026-04-25 04:08 -17.49292 130.03945 38051 ft 422 kts 298°
2026-04-25 04:09 -17.46422 129.98582 38047 ft 422 kts 298°
2026-04-25 04:09 -17.43548 129.93218 38044 ft 422 kts 298°
2026-04-25 04:10 -17.40673 129.87854 38044 ft 422 kts 298°
2026-04-25 04:10 -17.37797 129.82494 38042 ft 422 kts 298°
2026-04-25 04:11 -17.33480 129.74457 38041 ft 423 kts 298°
2026-04-25 04:12 -17.30595 129.69091 38040 ft 423 kts 298°
2026-04-25 04:12 -17.27704 129.63718 38030 ft 423 kts 298°
2026-04-25 04:13 -17.24833 129.58386 38030 ft 423 kts 298°
2026-04-25 04:13 -17.21944 129.53025 38029 ft 423 kts 298°
2026-04-25 04:14 -17.19053 129.47665 38025 ft 423 kts 298°
2026-04-25 04:14 -17.16158 129.42304 38023 ft 423 kts 298°
2026-04-25 04:15 -17.13258 129.36936 38022 ft 424 kts 298°
2026-04-25 04:15 -17.10353 129.31561 38024 ft 425 kts 298°
2026-04-25 04:16 -17.07446 129.26190 38023 ft 424 kts 298°
2026-04-25 04:16 -17.04542 129.20826 38020 ft 424 kts 298°
2026-04-25 04:17 -17.01635 129.15463 38021 ft 424 kts 298°
2026-04-25 04:17 -16.98727 129.10101 38012 ft 424 kts 298°
2026-04-25 04:18 -16.96312 129.05653 38013 ft 423 kts 298°
2026-04-25 04:18 -16.93408 129.00307 38015 ft 423 kts 298°
2026-04-25 04:19 -16.90029 128.94091 38006 ft 423 kts 298°
2026-04-25 04:19 -16.87593 128.89614 38015 ft 423 kts 298°
2026-04-25 04:20 -16.84684 128.84271 38005 ft 423 kts 298°
2026-04-25 04:20 -16.81773 128.78930 38007 ft 423 kts 298°
2026-04-25 04:21 -16.78864 128.73595 38008 ft 423 kts 298°
2026-04-25 04:21 -16.75948 128.68252 38000 ft 424 kts 298°
2026-04-25 04:22 -16.73040 128.62926 38012 ft 425 kts 299°
2026-04-25 04:22 -16.70116 128.57576 38004 ft 424 kts 299°
2026-04-25 04:23 -16.67191 128.52229 38004 ft 424 kts 299°
2026-04-25 04:23 -16.64263 128.46882 38009 ft 424 kts 299°
2026-04-25 04:24 -16.61281 128.41573 38008 ft 425 kts 300°
2026-04-25 04:24 -16.58205 128.36306 38001 ft 425 kts 300°
2026-04-25 04:25 -16.55113 128.31036 38010 ft 427 kts 300°
2026-04-25 04:25 -16.52017 128.25745 38013 ft 427 kts 300°
2026-04-25 04:26 -16.48928 128.20453 38010 ft 427 kts 300°
2026-04-25 04:26 -16.45860 128.15198 38007 ft 427 kts 300°
2026-04-25 04:27 -16.42771 128.09914 38004 ft 427 kts 300°
2026-04-25 04:27 -16.39683 128.04635 38011 ft 427 kts 300°
2026-04-25 04:28 -16.36592 127.99356 38007 ft 428 kts 300°
2026-04-25 04:28 -16.33482 127.94047 38003 ft 430 kts 300°
2026-04-25 04:29 -16.30368 127.88737 37997 ft 429 kts 300°
2026-04-25 04:29 -16.27257 127.83435 38002 ft 429 kts 300°
2026-04-25 04:30 -16.24145 127.78133 38007 ft 429 kts 300°
2026-04-25 04:30 -16.21032 127.72835 37994 ft 429 kts 300°
2026-04-25 04:31 -16.17937 127.67573 37993 ft 429 kts 300°
2026-04-25 04:31 -16.14810 127.62260 37998 ft 431 kts 300°
2026-04-25 04:32 -16.11671 127.56928 37992 ft 432 kts 300°
2026-04-25 04:32 -16.08529 127.51597 37990 ft 432 kts 300°
2026-04-25 04:33 -16.05385 127.46265 37988 ft 432 kts 301°
2026-04-25 04:33 -16.02241 127.40939 37989 ft 432 kts 301°
2026-04-25 04:34 -15.99096 127.35615 37995 ft 432 kts 301°
2026-04-25 04:34 -15.95971 127.30328 37987 ft 433 kts 301°
2026-04-25 04:35 -15.92809 127.24981 37986 ft 435 kts 301°
2026-04-25 04:35 -15.89638 127.19623 37987 ft 435 kts 301°
2026-04-25 04:36 -15.86472 127.14280 37991 ft 434 kts 301°
2026-04-25 04:36 -15.83305 127.08938 37989 ft 434 kts 301°
2026-04-25 04:37 -15.80138 127.03599 37988 ft 434 kts 301°
2026-04-25 04:37 -15.76967 126.98259 37983 ft 434 kts 301°
2026-04-25 04:38 -15.73795 126.92921 37991 ft 434 kts 301°
2026-04-25 04:38 -15.70617 126.87576 37985 ft 435 kts 301°
2026-04-25 04:39 -15.67432 126.82223 37985 ft 436 kts 301°
2026-04-25 04:39 -15.64249 126.76877 37985 ft 435 kts 301°
2026-04-25 04:40 -15.61064 126.71535 37984 ft 435 kts 301°
2026-04-25 04:40 -15.57884 126.66202 37982 ft 434 kts 301°
2026-04-25 04:41 -15.54705 126.60875 37972 ft 435 kts 301°
2026-04-25 04:41 -15.51537 126.55568 37981 ft 437 kts 301°
2026-04-25 04:42 -15.48331 126.50203 37979 ft 437 kts 301°
2026-04-25 04:42 -15.45132 126.44852 37979 ft 435 kts 301°
2026-04-25 04:43 -15.41940 126.39519 37977 ft 435 kts 301°
2026-04-25 04:43 -15.38754 126.34198 37976 ft 434 kts 301°
2026-04-25 04:44 -15.35564 126.28873 37975 ft 435 kts 301°
2026-04-25 04:44 -15.32374 126.23550 37985 ft 435 kts 302°
2026-04-25 04:45 -15.29186 126.18236 37973 ft 434 kts 302°
2026-04-25 04:45 -15.26001 126.12932 37970 ft 434 kts 302°
2026-04-25 04:46 -15.22834 126.07660 37969 ft 434 kts 302°
2026-04-25 04:46 -15.19646 126.02358 37967 ft 434 kts 302°
2026-04-25 04:47 -15.16456 125.97055 37966 ft 434 kts 302°
2026-04-25 04:47 -15.13268 125.91759 37967 ft 434 kts 302°
2026-04-25 04:48 -15.10077 125.86461 37949 ft 434 kts 302°
2026-04-25 04:48 -15.06878 125.81155 37954 ft 435 kts 302°
2026-04-25 04:49 -15.03669 125.75835 37953 ft 435 kts 302°
2026-04-25 04:49 -15.00456 125.70514 37958 ft 436 kts 302°
2026-04-25 04:50 -14.97263 125.65230 37953 ft 436 kts 302°
2026-04-25 04:50 -14.94025 125.59874 37959 ft 436 kts 302°
2026-04-25 04:51 -14.90807 125.54556 37950 ft 436 kts 302°
2026-04-25 04:51 -14.87588 125.49238 37952 ft 436 kts 302°
2026-04-25 04:52 -14.84393 125.43964 37946 ft 435 kts 302°
2026-04-25 04:52 -14.81176 125.38658 37945 ft 435 kts 302°
2026-04-25 04:53 -14.77960 125.33357 37945 ft 435 kts 302°
2026-04-25 04:53 -14.74744 125.28059 37944 ft 435 kts 302°
2026-04-25 04:54 -14.71528 125.22764 37943 ft 435 kts 302°
2026-04-25 04:54 -14.68307 125.17469 37942 ft 435 kts 302°
2026-04-25 04:55 -14.65080 125.12170 37942 ft 436 kts 303°
2026-04-25 04:55 -14.61842 125.06858 37941 ft 438 kts 303°
2026-04-25 04:56 -14.58591 125.01528 37947 ft 439 kts 303°
2026-04-25 04:56 -14.55340 124.96201 37941 ft 438 kts 303°
2026-04-25 04:57 -14.52095 124.90888 37948 ft 437 kts 303°
2026-04-25 04:57 -14.48852 124.85580 37948 ft 437 kts 303°
2026-04-25 04:58 -14.45626 124.80306 37943 ft 437 kts 303°
2026-04-25 04:58 -14.42379 124.74999 37947 ft 438 kts 303°
2026-04-25 04:59 -14.39120 124.69677 37950 ft 440 kts 303°
2026-04-25 04:59 -14.35853 124.64345 37951 ft 440 kts 303°
2026-04-25 05:00 -14.32583 124.59012 37950 ft 439 kts 303°
2026-04-25 05:00 -14.29318 124.53690 37955 ft 439 kts 303°
2026-04-25 05:01 -14.26052 124.48368 37954 ft 439 kts 303°
2026-04-25 05:01 -14.22786 124.43051 37954 ft 439 kts 303°
2026-04-25 05:02 -14.19525 124.37744 37950 ft 438 kts 303°
2026-04-25 05:02 -14.16283 124.32472 37955 ft 438 kts 303°
2026-04-25 05:03 -14.13023 124.27172 37953 ft 438 kts 303°
2026-04-25 05:03 -14.09754 124.21864 37948 ft 439 kts 303°
2026-04-25 05:04 -14.06486 124.16559 37949 ft 439 kts 303°
2026-04-25 05:04 -14.03203 124.11235 37952 ft 440 kts 303°
2026-04-25 05:05 -13.99926 124.05921 37949 ft 438 kts 303°
2026-04-25 05:05 -13.96652 124.00618 37946 ft 439 kts 303°
2026-04-25 05:06 -13.93389 123.95337 37942 ft 436 kts 303°
2026-04-25 05:06 -13.90148 123.90091 37946 ft 438 kts 303°
2026-04-25 05:07 -13.86871 123.84792 37948 ft 438 kts 303°
2026-04-25 05:07 -13.83595 123.79500 37947 ft 439 kts 303°
2026-04-25 05:08 -13.80842 123.75054 37948 ft 440 kts 304°
2026-04-25 05:08 -13.77561 123.69760 37943 ft 438 kts 303°
2026-04-25 05:09 -13.74307 123.64510 37945 ft 437 kts 304°
2026-04-25 05:09 -13.71040 123.59244 37937 ft 437 kts 304°
2026-04-25 05:10 -13.67755 123.53957 37939 ft 441 kts 304°
2026-04-25 05:10 -13.64453 123.48642 37940 ft 440 kts 304°
2026-04-25 05:11 -13.61145 123.43320 37935 ft 443 kts 304°
2026-04-25 05:11 -13.57831 123.37990 37938 ft 441 kts 304°
2026-04-25 05:12 -13.52872 123.30025 37936 ft 441 kts 304°
2026-04-25 05:12 -13.49575 123.24729 37935 ft 439 kts 304°
2026-04-25 05:13 -13.46302 123.19479 37935 ft 440 kts 303°
2026-04-25 05:13 -13.42988 123.14167 37935 ft 441 kts 304°
2026-04-25 05:14 -13.39661 123.08838 37936 ft 445 kts 304°
2026-04-25 05:15 -13.34637 123.00793 37936 ft 445 kts 304°
2026-04-25 05:15 -13.31297 122.95450 37936 ft 445 kts 304°
2026-04-25 05:16 -13.27964 122.90121 37931 ft 442 kts 304°
2026-04-25 05:16 -13.24634 122.84802 37932 ft 442 kts 304°
2026-04-25 05:17 -13.21303 122.79484 37933 ft 443 kts 304°
2026-04-25 05:17 -13.17969 122.74162 37935 ft 443 kts 304°
2026-04-25 05:18 -13.14651 122.68870 37932 ft 445 kts 304°
2026-04-25 05:18 -13.11302 122.63533 37928 ft 443 kts 304°